Location: Belfast
(54.5830°N, 5.9330°W)
Time: 14:06:38
(UTC+01:00)

ISS - Pass Details

Date: 28 May 2017
Orbit: 402 x 408 km, 51.6° (Epoch: 26 May)

Event Time Altitude Azimuth Distance (km) Brightness Sun altitude
Rises 23:46:09 0° 261° (W) 2,333 0.2 -11.1°
Reaches altitude 10° 23:48:15 10° 256° (WSW) 1,472 -0.9 -11.2°
Maximum altitude 23:51:28 51° 179° (S) 523 -3.7 -11.4°
Drops below altitude 10° 23:54:41 10° 103° (ESE) 1,468 -1.3 -11.6°
Enters shadow 23:55:58 - 100° (E) 1,989 -0.6 -11.6°
